Weather in Bonito

Brazil     21°07′33″S   56°28′53″W
temp.,
°C
wind,
m/s
gust,
m/s
humid.,
%
clouds,
%
prec.,
mm/h
press.,
hPa
HPBL,
m
3 march, wed
wed323:00+21ene119813 9.6 101034
02:00+21nne249811 11.0 1011118
05:00+20nne129922 0.0 101090
08:00+23nne389222 0.0 1013539
11:00+29nne466635 0.3 10111119
14:00+30n366748 4.4 10091401
17:00+28nne2580100 3.6 1007250
20:00+23n3994100 19.0 1010172
4 march, thu
thu423:00+22nne289870 2.0 1011298
02:00+22nne2119773 3.5 1011450
05:00+21nne2109895 1.5 1011491
08:00+24nne389291 1.6 1012621
11:00+29n586954 2.3 10111274
14:00+27nnw368677 10.4 1008977
17:00+25n3791100 4.9 1006292
20:00+23nnw2595100 5.6 1007140
5 march, fri
fri523:00+22ssw3898100 8.1 1009404
02:00+21nnw2799100 23.4 1008331
05:00+21nw1299100 1.6 1008104
08:00+23nw3793100 1.9 1010639
11:00+23w2691100 1.0 1009404
14:00+27w258794 6.2 1007780
17:00+26wnw159269 4.8 1005660
20:00+21wnw239465 6.5 100760
6 march, sat
sat623:00+21w2395100 0.0 100896
02:00+21wnw2395100 0.0 100794
05:00+19ene129867 0.0 100848
08:00+23nne229141 0.3 1010215
11:00+30nw02643 2.7 10091020
14:00+30wnw23532 3.0 10071887
17:00+28wnw127121 0.3 100655
20:00+22nnw128111 0.4 100823
7 march, sun
sun723:00+21n228118 0.0 100928
02:00+20n12949 0.0 100835
05:00+20nnw11960 0.0 100924
08:00+24ne12820 0.0 1011272
11:00+31nnw13570 0.6 10101464
14:00+28ne137730 1.7 1008409
17:00+27e12754 0.3 100756
20:00+23n22843 0.4 100829